DELTA 1 DEB, 1312

Orbit data source: Space-Track

DELTA 1 DEB, 1312 is space debris in SSO originally from a launch on Fri, 22 Jan 1965 UTC launched from the Air Force Eastern Test Range (AFETR). Debris objects in space refer to the collection of defunct objects orbiting the Earth. Examples of debris include non-operational satellites, rocket bodies, and fragments generated from explosions, collisions, or faulty payload assembly.

Loading next visibility...
Identifier
1312, 1965-004C
Orbit
SSO
Last TLE update
5 days ago
Origin
Manufacturer
Unknown
Mission
Spacecraft
Bus & Motor
Unknown
Mass
~1 kg wet, ~1 kg dry
Launch date (UTC)
1965-01-22 (60 years ago)
Launch vehicle
Unknown
Launch site
Air Force Eastern Test Range (AFETR)
Object type
Payload
Rocket body
Debris
Shape & HBR
Box + 1 Cable, 3.5 m
Radar Cross Section
6.125 m², Small (<0.1 m²)

Expand to show TLE details & history

TLE from 5 days ago
0 DELTA 1 DEB
1 01312U 65004C   25124.47510246  .00000108  00000-0  13085-3 0  9994
2 01312  96.3384 310.6117 1115868 307.3092  43.1248 12.28116946676411
Epoch: 2025-05-04T11:24Z
Definitive object data (Epoch: 2025-05-04T11:24:08.852Z)
Latitude
Longitude
-83.02766°
Altitude
966.014 km
Speed
7.639 km/s
True Right ascension
20h 42m 26s
True Declination
0° 00' 00"
Sunlit
Object was in daylight at TLE epoch
Visualization TLE readout
Latitude
31.53453°
Longitude
103.40345°
Altitude
2,283.697 km
Speed
6.471 km/s
Apparent Right ascension
07h 06m 49s
Apparent Declination
2° 38' 19"
Sunlit
Object is in daylight
Visualization observer readout
Local Sidereal Time
15:48:22
Azimuth
300.637° NW
Elevation
-27.834°
Doppler factor
1
Orbital elements
Apogee altitude
2,439.86 km
Perigee altitude
669.468 km
Semi-major axis
7,932.801 km
Eccentricity
0.1115868
Inclination
96.3384°
RAAN
310.6117°
Arg. of periapsis
307.3092°
True anomaly
52.80463°
Mean anomaly
43.1248°
Eccentric anomaly
47.86605°
Mean motion
3.07187 °/min
BSTAR
0.00013085
Orbital period
117.19 mins
Loading maneuver chart data...
Loading SW <> Apogee altitude chart data...
Loading historical data...
Loading historical data...
Loading historical data...
Loading historical data...
Loading historical data...
Loading historical data...
Loading historical data...
Other satellites on launch #4 in the year 1965 (1965-01-22 UTC)

DELTA 1 DEB Visibility forecast

Observer location: undefined°, undefined°

Span
Click to sort rows by Start time (UTC) header in descending order
Start Az.
Max El. time (UTC)
Max El. Az.
Max El.
End time (UTC)
End Az.
16 mins2025-05-09 10:47:20.868Z116.457° SE2025-05-09 10:54:20.868Z61.518° ENE28.201°2025-05-09 11:03:20.868Z4.733° NNE
17 mins2025-05-09 12:43:20.868Z187.043° SSW2025-05-09 12:49:20.868Z264.43° W42.37°2025-05-09 13:00:20.868Z345.75° N
5 mins2025-05-09 14:46:20.868Z278.296° WNW2025-05-09 14:48:20.868Z291.06° WNW11.644°2025-05-09 14:51:20.868Z308.388° NW
19 mins2025-05-09 23:05:20.868Z31.824° NE2025-05-09 23:14:20.868Z79.391° E26.358°2025-05-09 23:24:20.868Z137.669° SSE
24 mins2025-05-10 00:59:20.868Z8.903° NNE2025-05-10 01:11:20.868Z318.652° NNW44.781°2025-05-10 01:23:20.868Z197.796° SSW
18 mins2025-05-10 02:56:20.868Z351.224° N2025-05-10 03:05:20.868Z305.23° NW25.107°2025-05-10 03:14:20.868Z256.549° W
|